Miscellaneous Local Product
Issued by NWS North Platte, NE

Home | Current Version | Previous Version | Text Only | Print | Product List | Glossary On
Versions: 1 2 3 4 5 6 7 8 9 10 11 12 13 14 15 16 17 18 19 20 21 22 23 24 25 26 27 28 29 30 31 32 33 34 35 36 37 38 39 40 41 42 43 44 45 46 47 48 49 50
213
AXUS43 KLBF 272310
MISLBF


WESTERN AND NORTH CENTRAL NEBRASKA HOURLY WEATHER ROUNDUP
NATIONAL WEATHER SERVICE NORTH PLATTE NE
500 PM CST MON FEB 27 2017

NOTE: "FAIR" INDICATES FEW OR NO CLOUDS BELOW 12,000 FEET WITH NO
SIGNIFICANT WEATHER AND/OR OBSTRUCTIONS TO VISIBILITY.

NOTE: STATIONS NOT REPORTING VARIABLES SUCH AS SKY/WEATHER OR
PRESSURE ARE PROVIDED BY RAWS AND APRS NETWORKS AND ARE NOT UNDER
NATIONAL WEATHER SERVICE QUALITY CONTROL.

...OBSERVATIONS IN AND NEAR THE EASTERN PANHANDLE OF NEBRASKA...

CITY           SKY/WX    TMP DP  RH WIND       PRES   REMARKS
PINE RIDGE     PTSUNNY   40  20  44 CALM      29.59R
CHADRON        CLOUDY    35  25  66 W3        29.60R
ALLIANCE       CLOUDY    34  27  75 SE8       29.53F WCI  27
SIDNEY         SUNNY     53  13  20 S14       29.52F
CRESCENT LAKE    N/A     43  28  54 SE8         N/A
$$

...OBSERVATIONS IN NORTHERN NEBRASKA AND FAR SOUTHERN SOUTH DAKOTA...

CITY           SKY/WX    TMP DP  RH WIND       PRES   REMARKS
WINNER         FAIR      46  31  55 S16       29.64F
VALENTINE      PTSUNNY   40  29  64 S3        29.63S
THEDFORD       SUNNY     47  31  53 S10       29.62F
AINSWORTH      SUNNY     44  33  64 SE3       29.63F
O`NEILL        SUNNY     46  31  56 SE9       29.67F
ORD            SUNNY     51  32  48 S13       29.66F
BROKEN BOW     SUNNY     49  33  54 S9G21     29.64F
VALENTINE NWR    N/A     46  30  53 S12G18      N/A
BUTTE            N/A     42  30  63 SE3         N/A
HALSEY           N/A     49  30  47 SE8G17      N/A
CHAMBERS         N/A     46  29  51 S6          N/A
EWING            N/A     46  34  63 S6          N/A
$$

...OBSERVATIONS IN SOUTHWEST NEBRASKA AND FAR NORTHEAST COLORADO...

CITY           SKY/WX    TMP DP  RH WIND       PRES   REMARKS
HOLYOKE        FAIR      59  12  15 SE12G17   29.54F
IMPERIAL       SUNNY     55  17  22 SE12      29.57F
OGALLALA       SUNNY     53  23  30 SE10      29.58F
NORTH PLATTE   SUNNY     53  24  32 S12       29.62F
MCCOOK         SUNNY     55  21  26 S7        29.61F
LEXINGTON      SUNNY     55  26  32 S14       29.63F
STAPLETON        N/A     51  29  43 CALM        N/A
GOTHENBURG       N/A     53  25  33 S8          N/A
CALLAWAY         N/A     50  33  53 S8          N/A
$$

...OBSERVATIONS IN CENTRAL LINCOLN COUNTY AREA...

CITY           SKY/WX    TMP DP  RH WIND       PRES   REMARKS
N.P. AIRPORT   SUNNY     53  24  32 S12       29.62F
N.P. DOWNTOWN    N/A     18  11  74 W3          N/A
N.P. SOUTHEAST   N/A     53  26  35 S6          N/A
N.P. HILLCREST   N/A     52  27  38 S8G16       N/A
$$

...SOME OBSERVATIONS FROM AROUND THE REGION...

CITY           SKY/WX    TMP DP  RH WIND       PRES   REMARKS
LARAMIE        CLOUDY    24  19  81 NW18      29.54R WCI  10
CHEYENNE       CLOUDY    39  20  46 SW12      29.53R WCI  32
DENVER         CLOUDY    52   9  17 NW12      29.51R
AKRON          SUNNY     58  10  15 S16       29.49F
SCOTTSBLUFF    CLOUDY    37  24  59 SE6       29.52F WCI  32
RAPID CITY     CLOUDY    38  14  37 N13       29.60R WCI  30
BISMARCK       CLOUDY    21  15  78 NE15      29.81R WCI   8
PIERRE         CLOUDY    44  18  35 N15       29.63S
SIOUX FALLS    MOSUNNY   43  29  57 S17       29.76F
OMAHA          PTSUNNY   54  23  30 SE15      29.77S
GRAND ISLAND   SUNNY     54  38  54 S12       29.68F
KANSAS CITY    PTSUNNY   62  35  36 SE13      29.79F
WICHITA        CLOUDY    61  49  64 S12       29.73F
OKLAHOMA CITY  MOSUNNY   72  55  55 S20G26    29.78F
DALLAS         PTSUNNY   80  63  55 S20       29.81F
AMARILLO       SUNNY     69  16  13 SW22G36   29.76F
DODGE CITY     CLOUDY    66  22  18 SW13G21   29.67S
HAYS             N/A     65  19  17 SW18      29.66S
GOODLAND       CLOUDY    58  11  15 S16       29.58F
$$




USA.gov is the U.S. government's official web portal to all federal, state and local government web resources and services.